Weather History for Bullhead City, AZ

Change the Weather History Date:

Wednesday, July 24, 2013

  Actual Average Record
Temperature  
Mean Temperature 99 °F -  
Max Temperature 109 °F 106 °F 116 °F (1988)
Min Temperature 89 °F 85 °F 71 °F (1991)
Cooling Degree Days 34    
Growing Degree Days 49 (Base 50)    
Moisture  
Dew Point 57 °F    
Average Humidity 25    
Maximum Humidity 34    
Minimum Humidity 17    
Precipitation  
Precipitation 0.00 in - - ()
Sea Level Pressure  
Sea Level Pressure 29.77 in    
Wind  
Wind Speed 5 mph (SSW)    
Max Wind Speed 15 mph    
Max Gust Speed -    
Visibility 10 miles    
Events      
Averages and records for this station are not official NWS values.
T = Trace of Precipitation, MM = Missing Value Source: NWS Daily Summary

Daily Weather History Graph

Daily Weather History Graph

Search for Another Location

Airport:

Trip Planner

Search our weather history database for the weather conditions in past years. The results will help you decide how hot, cold, wet, or windy it might be!

Date:

Astronomy

Jul. 24, 2013 Rise Set
Actual Time 5:41 AM MST 7:47 PM MST
Civil Twilight 5:13 AM MST 8:15 PM MST
Nautical Twilight 4:38 AM MST 8:50 PM MST
Astronomical Twilight 4:01 AM MST 9:27 PM MST
Moon 9:04 PM MST (7/24) 7:59 AM MST (7/24)
Length of Visible Light 15h 02m
Length of Day
14h 05m
Waning Gibbous, 94% of the Moon is Illuminated
Jul 24
Waning Gibbous
Jul 29
Last Quarter
Aug 6
New
Aug 14
First Quarter
Aug 20
Full

Hourly Weather History & Observations

Time (MST) Temp. Heat Index Dew Point Humidity Pressure Visibility Wind Dir Wind Speed Gust Speed Precip Events Conditions
12:15 AM 96.8 °F 95.1 °F 55.4 °F 25% 29.82 in 10.0 mi South 6.9 mph - N/A   Clear
12:35 AM 95.0 °F 93.7 °F 57.2 °F 28% 29.82 in 10.0 mi SW 4.6 mph - N/A   Clear
12:55 AM 95.0 °F 93.7 °F 57.2 °F 28% 29.82 in 10.0 mi Calm Calm - N/A   Clear
1:15 AM 93.2 °F 91.9 °F 57.2 °F 30% 29.82 in 10.0 mi Calm Calm - N/A   Clear
1:35 AM 93.2 °F 91.9 °F 57.2 °F 30% 29.81 in 10.0 mi SSW 4.6 mph - N/A   Clear
1:55 AM 91.4 °F 89.9 °F 57.2 °F 31% 29.82 in 10.0 mi Calm Calm - N/A   Clear
2:15 AM 91.4 °F 89.9 °F 57.2 °F 31% 29.81 in 10.0 mi Calm Calm - N/A   Clear
2:35 AM 91.4 °F 89.9 °F 57.2 °F 31% 29.81 in 10.0 mi Calm Calm - N/A   Clear
2:55 AM 91.4 °F 89.9 °F 57.2 °F 31% 29.81 in 10.0 mi Calm Calm - N/A   Clear
3:15 AM 91.4 °F 89.9 °F 57.2 °F 31% 29.81 in 10.0 mi Calm Calm - N/A   Clear
3:35 AM 91.4 °F 89.9 °F 57.2 °F 31% 29.81 in 10.0 mi Calm Calm - N/A   Clear
3:55 AM 89.6 °F 88.1 °F 57.2 °F 33% 29.81 in 10.0 mi Calm Calm - N/A   Clear
4:15 AM 89.6 °F 88.1 °F 57.2 °F 33% 29.81 in 10.0 mi Calm Calm - N/A   Clear
4:35 AM 89.6 °F 88.1 °F 57.2 °F 33% 29.81 in 10.0 mi ESE 4.6 mph - N/A   Clear
4:55 AM 89.6 °F 88.1 °F 57.2 °F 33% 29.82 in 10.0 mi SE 3.5 mph - N/A   Clear
5:15 AM 89.6 °F 88.1 °F 57.2 °F 33% 29.82 in 10.0 mi Calm Calm - N/A   Clear
5:35 AM 89.6 °F 88.1 °F 57.2 °F 33% 29.83 in 10.0 mi Calm Calm - N/A   Clear
5:55 AM 89.6 °F 88.1 °F 57.2 °F 33% 29.83 in 10.0 mi South 4.6 mph - N/A   Clear
6:15 AM 89.6 °F 88.1 °F 57.2 °F 33% 29.83 in 10.0 mi Calm Calm - N/A   Clear
6:35 AM 89.6 °F 88.1 °F 57.2 °F 33% 29.83 in 10.0 mi Calm Calm - N/A   Clear
6:55 AM 89.6 °F 88.1 °F 57.2 °F 33% 29.83 in 10.0 mi SSE 4.6 mph - N/A   Clear
7:15 AM 91.4 °F 90.7 °F 59.0 °F 34% 29.84 in 10.0 mi Calm Calm - N/A   Clear
7:35 AM 91.4 °F 90.7 °F 59.0 °F 34% 29.84 in 10.0 mi Calm Calm - N/A   Clear
7:55 AM 91.4 °F 90.7 °F 59.0 °F 34% 29.84 in 10.0 mi SSW 3.5 mph - N/A   Clear
8:15 AM 91.4 °F 90.7 °F 59.0 °F 34% 29.85 in 10.0 mi SSW 4.6 mph - N/A   Clear
8:35 AM 93.2 °F 92.6 °F 59.0 °F 32% 29.85 in 10.0 mi SW 6.9 mph - N/A   Clear
8:55 AM 93.2 °F 92.6 °F 59.0 °F 32% 29.85 in 10.0 mi SW 6.9 mph - N/A   Clear
9:15 AM 95.0 °F 95.2 °F 60.8 °F 32% 29.85 in 10.0 mi SW 8.1 mph - N/A   Partly Cloudy
9:35 AM 95.0 °F 96.0 °F 62.6 °F 34% 29.85 in 10.0 mi SW 6.9 mph - N/A   Scattered Clouds
9:55 AM 98.6 °F 99.4 °F 60.8 °F 29% 29.85 in 10.0 mi SW 8.1 mph - N/A   Partly Cloudy
10:15 AM 98.6 °F 99.4 °F 60.8 °F 29% 29.84 in 10.0 mi SW 9.2 mph - N/A   Clear
10:35 AM 98.6 °F 99.4 °F 60.8 °F 29% 29.84 in 10.0 mi SW 6.9 mph - N/A   Clear
10:55 AM 100.4 °F 100.2 °F 59.0 °F 25% 29.83 in 10.0 mi WSW 8.1 mph - N/A   Clear
11:15 AM 100.4 °F 100.2 °F 59.0 °F 25% 29.83 in 10.0 mi SW 5.8 mph - N/A   Clear
11:35 AM 102.2 °F 101.4 °F 57.2 °F 22% 29.82 in 10.0 mi SW 6.9 mph - N/A   Clear
11:55 AM 104.0 °F 103.4 °F 57.2 °F 21% 29.81 in 10.0 mi SSW 5.8 mph - N/A   Clear
12:15 PM 104.0 °F 103.4 °F 57.2 °F 21% 29.81 in 10.0 mi WSW 11.5 mph - N/A   Clear
12:35 PM 104.0 °F 103.4 °F 57.2 °F 21% 29.80 in 10.0 mi South 9.2 mph - N/A   Clear
12:55 PM 105.8 °F 104.9 °F 55.4 °F 19% 29.79 in 10.0 mi SSW 9.2 mph - N/A   Clear
1:15 PM 105.8 °F 104.9 °F 55.4 °F 19% 29.78 in 10.0 mi WSW 10.4 mph - N/A   Clear
1:35 PM 107.6 °F 106.8 °F 55.4 °F 18% 29.77 in 10.0 mi SW 9.2 mph - N/A   Clear
1:55 PM 107.6 °F 106.8 °F 55.4 °F 18% 29.76 in 10.0 mi SW 10.4 mph - N/A   Clear
2:15 PM 107.6 °F 106.8 °F 55.4 °F 18% 29.75 in 10.0 mi South 3.5 mph - N/A   Clear
2:35 PM 107.6 °F 106.8 °F 55.4 °F 18% 29.75 in 10.0 mi SSW 5.8 mph - N/A   Clear
2:55 PM 107.6 °F 106.8 °F 55.4 °F 18% 29.74 in 10.0 mi Calm Calm - N/A   Clear
3:15 PM 107.6 °F 106.8 °F 55.4 °F 18% 29.72 in 10.0 mi SW 9.2 mph - N/A   Clear
3:35 PM 109.4 °F 108.6 °F 55.4 °F 17% 29.71 in 10.0 mi WSW 10.4 mph - N/A   Clear
3:55 PM 109.4 °F 108.6 °F 55.4 °F 17% 29.70 in 10.0 mi SW 10.4 mph - N/A   Clear
4:15 PM 109.4 °F 108.6 °F 55.4 °F 17% 29.70 in 10.0 mi WNW 4.6 mph - N/A   Clear
4:35 PM 109.4 °F 108.6 °F 55.4 °F 17% 29.69 in 10.0 mi South 8.1 mph - N/A   Clear
4:55 PM 109.4 °F 108.6 °F 55.4 °F 17% 29.68 in 10.0 mi SSW 12.7 mph - N/A   Clear
5:15 PM 109.4 °F 108.6 °F 55.4 °F 17% 29.68 in 10.0 mi South 5.8 mph - N/A   Clear
5:35 PM 109.4 °F 108.6 °F 55.4 °F 17% 29.67 in 10.0 mi SSW 9.2 mph - N/A   Clear
5:55 PM 109.4 °F 108.6 °F 55.4 °F 17% 29.67 in 10.0 mi SW 9.2 mph - N/A   Clear
6:15 PM 109.4 °F 108.6 °F 55.4 °F 17% 29.66 in 10.0 mi SW 9.2 mph - N/A   Clear
6:35 PM 109.4 °F 108.6 °F 55.4 °F 17% 29.67 in 10.0 mi South 9.2 mph - N/A   Clear
6:55 PM 107.6 °F 106.8 °F 55.4 °F 18% 29.67 in 10.0 mi SSW 11.5 mph - N/A   Clear
7:15 PM 107.6 °F 106.8 °F 55.4 °F 18% 29.67 in 10.0 mi SSW 9.2 mph - N/A   Clear
7:35 PM 107.6 °F 106.1 °F 53.6 °F 17% 29.67 in 10.0 mi South 10.4 mph - N/A   Clear
7:55 PM 107.6 °F 106.1 °F 53.6 °F 17% 29.67 in 10.0 mi South 11.5 mph - N/A   Clear
8:15 PM 107.6 °F 106.8 °F 55.4 °F 18% 29.68 in 10.0 mi South 15.0 mph - N/A   Clear
8:35 PM 105.8 °F 104.3 °F 53.6 °F 18% 29.69 in 10.0 mi South 13.8 mph - N/A   Clear
8:55 PM 105.8 °F 104.9 °F 55.4 °F 19% 29.70 in 10.0 mi South 15.0 mph - N/A   Clear
9:15 PM 104.0 °F 102.9 °F 55.4 °F 20% 29.71 in 10.0 mi South 11.5 mph - N/A   Clear
9:35 PM 102.2 °F 101.4 °F 57.2 °F 22% 29.72 in 10.0 mi WSW 3.5 mph - N/A   Clear
9:55 PM 102.2 °F 100.9 °F 55.4 °F 21% 29.73 in 10.0 mi SSW 5.8 mph - N/A   Clear
10:15 PM 102.2 °F 100.4 °F 53.6 °F 20% 29.73 in 10.0 mi South 8.1 mph - N/A   Clear
10:35 PM 102.2 °F 100.9 °F 55.4 °F 21% 29.73 in 10.0 mi South 10.4 mph - N/A   Clear
10:55 PM 102.2 °F 100.4 °F 53.6 °F 20% 29.73 in 10.0 mi South 10.4 mph - N/A   Clear
11:15 PM 102.2 °F 100.9 °F 55.4 °F 21% 29.74 in 10.0 mi SSE 13.8 mph - N/A   Clear
11:35 PM 102.2 °F 101.4 °F 57.2 °F 22% 29.73 in 10.0 mi SSE 15.0 mph - N/A   Clear
11:55 PM 100.4 °F 99.7 °F 57.2 °F 24% 29.74 in 10.0 mi SSE 15.0 mph - N/A   Clear